Location: Bethune
(34.4150°N, 80.3490°W)
Time: 10:42:06
(UTC-04:00)

ISS - Visible Passes

Search period start: 25 September 2022 00:00
Search period end: 05 October 2022 00:00
Orbit: 414 x 417 km, 51.6° (Epoch: 25 September)

Date Brightness Start Highest point End Pass type
(mag) Time Alt. Az. Time Alt. Az. Time Alt. Az.
29 Sep -1.1 20:47:43 10° N 20:48:18 12° N 20:48:18 12° N visible
01 Oct -1.8 20:45:58 10° NNW 20:47:43 22° N 20:47:43 22° N visible
02 Oct -1.9 19:57:39 10° NNW 20:00:02 18° NNE 20:01:05 16° NE visible
02 Oct -0.3 21:33:42 10° WNW 21:33:58 12° WNW 21:33:58 12° WNW visible
03 Oct -3.0 20:44:50 10° NW 20:47:26 50° NW 20:47:26 50° NW visible
04 Oct -3.3 19:56:09 10° NW 19:59:24 44° NE 20:01:00 24° E visible
